K0FJ-1 Weather Reports


Display with metric or nautical units.
time (UTC)temp
F
wind
direction
speed
MPH
gust
MPH
rain 1hr
in
rain 24hr
in
rain mn
in
humidity
%
barometer
mb
20260904015503 82 0 0.0 0.0 0.00 0.00 0.00 51 1012.4
20260904015003 82 0 0.0 0.0 0.00 0.00 0.00 51 1012.4
20260904014503 83 0 0.0 0.0 0.00 0.00 0.00 50 1012.3
20260904014003 83 0 0.0 0.0 0.00 0.00 0.00 50 1012.3
20260904013503 84 0 0.0 0.0 0.00 0.00 0.00 49 1012.2
20260904013003 84 0 0.0 0.0 0.00 0.00 0.00 48 1012.1
20260904012503 85 17 0.0 2.0 0.00 0.00 0.00 47 1012.1
20260904012003 85 17 0.0 2.0 0.00 0.00 0.00 47 1012.0
20260904011503 86 17 0.0 1.0 0.00 0.00 0.00 46 1012.0
20260904011003 87 0 0.0 0.0 0.00 0.00 0.00 44 1012.1
20260904010503 88 0 0.0 0.0 0.00 0.00 0.00 43 1012.0
20260904010003 88 17 0.0 1.0 0.00 0.00 0.00 42 1012.0
20260904005503 89 17 0.0 1.0 0.00 0.00 0.00 41 1012.0
20260904005003 90 17 0.0 2.0 0.00 0.00 0.00 40 1012.0
20260904004503 90 17 0.0 4.0 0.00 0.00 0.00 40 1012.0
20260904004003 90 19 0.0 4.0 0.00 0.00 0.00 39 1011.9
20260904003503 91 51 0.0 5.0 0.00 0.00 0.00 38 1011.9
20260904003003 91 46 1.0 5.0 0.00 0.00 0.00 38 1011.9
20260904002503 91 28 1.0 4.0 0.00 0.00 0.00 38 1012.0
20260904002003 92 24 1.0 4.0 0.00 0.00 0.00 37 1011.9
20260904001503 93 37 1.0 4.0 0.00 0.00 0.00 36 1011.9
20260904001003 94 33 1.0 5.0 0.00 0.00 0.00 35 1011.8
20260904000503 94 30 1.0 5.0 0.00 0.00 0.00 34 1011.9
20260904000003 95 42 1.0 4.0 0.00 0.00 0.00 32 1011.9
20260903235503 95 48 1.0 4.0 0.00 0.00 0.00 33 1011.9
20260903235003 96 26 2.0 4.0 0.00 0.00 0.00 30 1012.0
20260903234503 96 357 2.0 5.0 0.00 0.00 0.00 30 1011.9
20260903234003 96 337 3.0 8.0 0.00 0.00 0.00 29 1012.0
20260903233503 96 335 3.0 9.0 0.00 0.00 0.00 29 1011.9
20260903233003 97 340 3.0 9.0 0.00 0.00 0.00 28 1012.0
20260903232503 97 348 3.0 6.0 0.00 0.00 0.00 29 1011.9
20260903232003 97 352 2.0 6.0 0.00 0.00 0.00 27 1011.8
20260903231503 97 335 2.0 6.0 0.00 0.00 0.00 29 1011.9
20260903231003 97 314 3.0 10.0 0.00 0.00 0.00 26 1011.8
20260903230503 97 330 3.0 10.0 0.00 0.00 0.00 27 1011.8
20260903230003 97 359 2.0 8.0 0.00 0.00 0.00 27 1011.8
20260903225503 97 329 3.0 8.0 0.00 0.00 0.00 27 1011.8
20260903225003 97 312 4.0 10.0 0.00 0.00 0.00 27 1011.7
20260903224503 97 333 4.0 11.0 0.00 0.00 0.00 27 1011.7
20260903224003 97 344 3.0 11.0 0.00 0.00 0.00 27 1011.8
20260903223503 98 305 4.0 10.0 0.00 0.00 0.00 29 1011.7
20260903223003 98 283 5.0 11.0 0.00 0.00 0.00 27 1011.7
20260903222503 97 264 5.0 11.0 0.00 0.00 0.00 27 1011.7
20260903222003 98 241 4.0 10.0 0.00 0.00 0.00 27 1011.6
20260903221503 98 281 5.0 11.0 0.00 0.00 0.00 24 1011.7
20260903221003 98 305 5.0 12.0 0.00 0.00 0.00 24 1011.7
20260903220503 98 303 4.0 12.0 0.00 0.00 0.00 24 1011.7
20260903220003 98 293 3.0 10.0 0.00 0.00 0.00 26 1011.7
20260903215503 98 274 3.0 9.0 0.00 0.00 0.00 28 1011.8
20260903215003 98 277 4.0 8.0 0.00 0.00 0.00 27 1011.7
20260903214503 98 301 4.0 8.0 0.00 0.00 0.00 26 1011.7
20260903214003 97 308 4.0 8.0 0.00 0.00 0.00 27 1011.8
20260903213503 97 301 4.0 10.0 0.00 0.00 0.00 28 1011.8
20260903213003 97 302 4.0 10.0 0.00 0.00 0.00 30 1011.7
20260903212503 97 308 4.0 10.0 0.00 0.00 0.00 30 1011.7
20260903212003 97 308 4.0 9.0 0.00 0.00 0.00 28 1011.8
20260903211503 97 313 4.0 8.0 0.00 0.00 0.00 31 1011.8
20260903211003 96 315 4.0 9.0 0.00 0.00 0.00 31 1011.8
20260903210503 96 322 4.0 9.0 0.00 0.00 0.00 32 1011.8
20260903210003 96 338 4.0 12.0 0.00 0.00 0.00 32 1011.8
20260903205503 96 329 5.0 12.0 0.00 0.00 0.00 32 1012.0
20260903205003 96 321 4.0 11.0 0.00 0.00 0.00 31 1012.0
20260903204503 96 313 4.0 12.0 0.00 0.00 0.00 33 1012.0
20260903204003 95 308 4.0 12.0 0.00 0.00 0.00 34 1012.0
20260903203503 95 308 5.0 10.0 0.00 0.00 0.00 36 1012.0
20260903203003 95 307 6.0 17.0 0.00 0.00 0.00 35 1012.1
20260903202503 95 296 5.0 17.0 0.00 0.00 0.00 34 1012.1
20260903202003 95 288 6.0 12.0 0.00 0.00 0.00 34 1012.1
20260903201503 95 304 6.0 14.0 0.00 0.00 0.00 35 1012.2
20260903201003 95 300 5.0 14.0 0.00 0.00 0.00 35 1012.1
20260903200503 95 290 5.0 12.0 0.00 0.00 0.00 35 1012.1
20260903200003 94 301 6.0 12.0 0.00 0.00 0.00 33 1012.2
20260903195503 94 304 5.0 12.0 0.00 0.00 0.00 35 1012.1
20260903195003 94 302 5.0 12.0 0.00 0.00 0.00 35 1012.2
20260903194503 94 305 6.0 15.0 0.00 0.00 0.00 35 1012.3
20260903194003 94 304 6.0 15.0 0.00 0.00 0.00 34 1012.3
20260903193503 94 299 5.0 11.0 0.00 0.00 0.00 36 1012.2
20260903193003 94 312 5.0 17.0 0.00 0.00 0.00 36 1012.2
20260903192503 93 310 6.0 17.0 0.00 0.00 0.00 38 1012.3
20260903192003 93 292 4.0 11.0 0.00 0.00 0.00 37 1012.3
20260903191503 93 291 5.0 12.0 0.00 0.00 0.00 37 1012.4
20260903191003 93 299 5.0 12.0 0.00 0.00 0.00 39 1012.4
20260903190503 93 305 4.0 11.0 0.00 0.00 0.00 39 1012.4
20260903190003 92 302 4.0 10.0 0.00 0.00 0.00 38 1012.4
20260903185503 92 308 5.0 11.0 0.00 0.00 0.00 40 1012.5
20260903185003 92 299 4.0 11.0 0.00 0.00 0.00 38 1012.6
20260903184503 92 276 4.0 11.0 0.00 0.00 0.00 39 1012.5
20260903184003 92 273 4.0 11.0 0.00 0.00 0.00 40 1012.7
20260903183503 91 295 5.0 11.0 0.00 0.00 0.00 39 1012.7
20260903183003 91 309 5.0 11.0 0.00 0.00 0.00 41 1012.7
20260903182503 91 299 5.0 12.0 0.00 0.00 0.00 41 1012.7
20260903182003 90 293 6.0 12.0 0.00 0.00 0.00 42 1012.8
20260903181503 90 293 6.0 12.0 0.00 0.00 0.00 42 1012.8
20260903181003 90 300 6.0 12.0 0.00 0.00 0.00 43 1012.9
20260903180503 89 304 6.0 12.0 0.00 0.00 0.00 43 1013.0
20260903180003 89 303 6.0 13.0 0.00 0.00 0.00 43 1013.0
20260903175503 89 302 6.0 13.0 0.00 0.00 0.00 42 1013.0
20260903175003 89 299 7.0 12.0 0.00 0.00 0.00 44 1013.1
20260903174503 88 296 6.0 12.0 0.00 0.00 0.00 43 1013.1
20260903174003 88 287 5.0 12.0 0.00 0.00 0.00 44 1013.2
20260903173503 88 287 5.0 12.0 0.00 0.00 0.00 44 1013.1
20260903173003 88 293 6.0 14.0 0.00 0.00 0.00 45 1013.1
20260903172503 87 296 7.0 14.0 0.00 0.00 0.00 45 1013.1
20260903172003 87 288 6.0 15.0 0.00 0.00 0.00 45 1013.1
20260903171503 86 293 6.0 15.0 0.00 0.00 0.00 47 1013.1
20260903171003 86 305 6.0 13.0 0.00 0.00 0.00 46 1013.1
20260903170503 86 302 6.0 13.0 0.00 0.00 0.00 47 1013.2
20260903170003 86 298 6.0 13.0 0.00 0.00 0.00 47 1013.1
20260903165503 85 292 7.0 13.0 0.00 0.00 0.00 46 1013.2
20260903165003 85 291 5.0 12.0 0.00 0.00 0.00 48 1013.1
20260903164503 85 282 4.0 12.0 0.00 0.00 0.00 47 1013.0
20260903164003 84 274 5.0 12.0 0.00 0.00 0.00 49 1013.0
20260903163503 83 287 5.0 12.0 0.00 0.00 0.00 50 1012.9
20260903163003 83 295 6.0 12.0 0.00 0.00 0.00 51 1012.8
20260903162503 82 292 6.0 13.0 0.00 0.00 0.00 50 1012.9
20260903162003 82 293 7.0 13.0 0.00 0.00 0.00 51 1012.9
20260903161503 81 292 7.0 13.0 0.00 0.00 0.00 52 1012.8
20260903161003 80 286 6.0 13.0 0.00 0.00 0.00 52 1012.8
20260903160503 80 295 5.0 11.0 0.00 0.00 0.00 53 1012.8
20260903160003 79 300 6.0 12.0 0.00 0.00 0.00 54 1012.8
20260903155503 79 290 6.0 12.0 0.00 0.00 0.00 54 1012.8
20260903155003 78 286 6.0 10.0 0.00 0.00 0.00 55 1012.7
20260903154503 78 287 6.0 11.0 0.00 0.00 0.00 56 1012.8
20260903154003 77 287 6.0 11.0 0.00 0.00 0.00 56 1012.7
20260903153503 77 290 5.0 12.0 0.00 0.00 0.00 56 1012.7
20260903153003 76 288 6.0 12.0 0.00 0.00 0.00 57 1012.6
20260903152503 76 276 6.0 11.0 0.00 0.00 0.00 57 1012.6
20260903152003 76 277 6.0 11.0 0.00 0.00 0.00 57 1012.6
20260903151503 76 275 6.0 11.0 0.00 0.00 0.00 57 1012.5
20260903151003 75 252 5.0 11.0 0.00 0.00 0.00 57 1012.4
20260903150503 75 259 5.0 11.0 0.00 0.00 0.00 58 1012.4
20260903150003 74 266 6.0 11.0 0.00 0.00 0.00 59 1012.4
20260903145503 74 254 5.0 11.0 0.00 0.00 0.00 58 1012.3
20260903145003 74 253 4.0 11.0 0.00 0.00 0.00 59 1012.4
20260903144503 74 258 4.0 12.0 0.00 0.00 0.00 60 1012.2
20260903144003 74 249 4.0 12.0 0.00 0.00 0.00 59 1012.3
20260903143503 73 252 4.0 12.0 0.00 0.00 0.00 60 1012.2
20260903143003 73 251 4.0 12.0 0.00 0.00 0.00 61 1012.1
20260903142503 73 240 5.0 9.0 0.00 0.00 0.00 62 1012.1
20260903142003 72 245 4.0 12.0 0.00 0.00 0.00 63 1012.2
20260903141503 72 242 4.0 12.0 0.00 0.00 0.00 64 1012.2
20260903141003 72 228 4.0 12.0 0.00 0.00 0.00 66 1012.3
20260903140503 72 219 6.0 12.0 0.00 0.00 0.00 66 1012.3
20260903140003 72 221 6.0 12.0 0.00 0.00 0.00 66 1012.3
20260903135503 72 222 5.0 14.0 0.00 0.00 0.00 67 1012.3
20260903135003 72 214 5.0 14.0 0.00 0.00 0.00 67 1012.3
20260903134503 71 213 5.0 10.0 0.00 0.00 0.00 69 1012.2
20260903134003 71 211 5.0 10.0 0.00 0.00 0.00 69 1012.2
20260903133503 71 207 4.0 10.0 0.00 0.00 0.00 69 1012.1
20260903133003 70 206 4.0 9.0 0.00 0.00 0.00 69 1012.1
20260903132503 70 202 3.0 9.0 0.00 0.00 0.00 69 1012.1
20260903132003 71 203 2.0 7.0 0.00 0.00 0.00 68 1012.1
20260903131503 71 201 3.0 11.0 0.00 0.00 0.00 68 1012.3
20260903131003 71 190 5.0 11.0 0.00 0.00 0.00 68 1012.1
20260903130503 71 188 5.0 11.0 0.00 0.00 0.00 68 1011.8
20260903130003 71 191 5.0 11.0 0.00 0.00 0.00 68 1011.9
20260903125503 71 197 5.0 11.0 0.00 0.00 0.00 67 1011.8
20260903125003 71 201 4.0 10.0 0.00 0.00 0.00 67 1012.0
20260903124503 72 192 6.0 14.0 0.00 0.00 0.00 66 1011.9
20260903124003 72 191 6.0 14.0 0.00 0.00 0.00 66 1011.6
20260903123503 72 194 6.0 12.0 0.00 0.00 0.00 66 1011.7
20260903123003 72 191 6.0 12.0 0.00 0.00 0.00 65 1011.7
20260903122503 72 191 6.0 12.0 0.00 0.00 0.00 65 1011.6
20260903122003 73 195 6.0 14.0 0.00 0.00 0.00 64 1011.7
20260903121503 73 190 7.0 16.0 0.00 0.00 0.00 64 1011.6
20260903121003 73 186 8.0 18.0 0.00 0.00 0.00 64 1011.6
20260903120503 73 187 7.0 18.0 0.00 0.00 0.00 63 1011.5
20260903120003 73 188 6.0 13.0 0.00 0.00 0.00 63 1011.6
20260903115503 73 192 6.0 14.0 0.00 0.00 0.00 63 1011.7
20260903115003 74 191 6.0 14.0 0.00 0.00 0.00 62 1011.6
20260903114503 74 188 7.0 14.0 0.00 0.00 0.00 62 1011.6
20260903114003 74 192 6.0 14.0 0.00 0.00 0.00 62 1011.5
20260903113503 74 190 6.0 12.0 0.00 0.00 0.00 62 1011.5
20260903113003 74 192 5.0 12.0 0.00 0.00 0.00 62 1011.6
20260903112503 74 204 4.0 9.0 0.00 0.00 0.00 62 1011.7
20260903112003 74 187 6.0 15.0 0.00 0.00 0.00 62 1011.6
20260903111503 74 188 6.0 15.0 0.00 0.00 0.00 62 1011.5
20260903111003 74 206 4.0 11.0 0.00 0.00 0.00 61 1011.5
20260903110503 74 200 4.0 12.0 0.00 0.00 0.00 61 1011.6
20260903110003 75 196 6.0 14.0 0.00 0.00 0.00 61 1011.6
20260903105503 75 192 6.0 14.0 0.00 0.00 0.00 60 1011.5
20260903105003 75 193 6.0 11.0 0.00 0.00 0.00 60 1011.6
20260903104503 75 198 6.0 11.0 0.00 0.00 0.00 60 1011.7
20260903104003 75 189 7.0 16.0 0.00 0.00 0.00 59 1011.7
20260903103503 76 184 8.0 16.0 0.00 0.00 0.00 59 1011.5
20260903103003 76 181 8.0 15.0 0.00 0.00 0.00 59 1011.4
20260903102503 76 175 9.0 18.0 0.00 0.00 0.00 59 1011.3
20260903102003 76 173 9.0 18.0 0.00 0.00 0.00 59 1011.4
20260903101503 76 177 8.0 16.0 0.00 0.00 0.00 59 1011.4
20260903101003 76 176 8.0 14.0 0.00 0.00 0.00 59 1011.4
20260903100503 76 175 8.0 16.0 0.00 0.00 0.00 59 1011.3
20260903100003 76 175 8.0 16.0 0.00 0.00 0.00 59 1011.3
20260903095503 75 175 8.0 17.0 0.00 0.00 0.00 59 1011.3
20260903095003 76 178 8.0 17.0 0.00 0.00 0.00 59 1011.4
20260903094503 75 179 8.0 15.0 0.00 0.00 0.00 59 1011.4
20260903094003 75 177 7.0 15.0 0.00 0.00 0.00 59 1011.4
20260903093503 75 175 8.0 16.0 0.00 0.00 0.00 59 1011.3
20260903093003 75 177 8.0 16.0 0.00 0.00 0.00 60 1011.3
20260903092503 75 178 8.0 15.0 0.00 0.00 0.00 60 1011.3
20260903092003 75 177 8.0 15.0 0.00 0.00 0.00 61 1011.2
20260903091503 75 177 7.0 16.0 0.00 0.00 0.00 61 1011.3
20260903091003 75 177 7.0 16.0 0.00 0.00 0.00 61 1011.4
20260903090503 75 175 6.0 13.0 0.00 0.00 0.00 61 1011.4
20260903090003 75 173 6.0 14.0 0.00 0.00 0.00 61 1011.4
20260903085503 75 173 7.0 14.0 0.00 0.00 0.00 61 1011.4
20260903085003 75 175 7.0 13.0 0.00 0.00 0.00 61 1011.5
20260903084503 75 172 7.0 12.0 0.00 0.00 0.00 61 1011.5
20260903084003 75 171 7.0 16.0 0.00 0.00 0.00 61 1011.5
20260903083503 75 175 7.0 16.0 0.00 0.00 0.00 61 1011.6
20260903083003 75 176 8.0 14.0 0.00 0.00 0.00 61 1011.7
20260903082503 75 176 8.0 15.0 0.00 0.00 0.00 61 1011.8
20260903082003 75 178 7.0 15.0 0.00 0.00 0.00 61 1011.8
20260903081503 75 177 6.0 14.0 0.00 0.00 0.00 61 1011.7
20260903081003 75 178 6.0 12.0 0.00 0.00 0.00 61 1011.7
20260903080503 75 178 6.0 12.0 0.00 0.00 0.00 61 1011.8
20260903080003 75 177 6.0 12.0 0.00 0.00 0.00 61 1011.8
20260903075503 75 177 5.0 11.0 0.00 0.00 0.00 61 1011.9
20260903075003 75 175 5.0 11.0 0.00 0.00 0.00 61 1011.9
20260903074503 75 174 6.0 12.0 0.00 0.00 0.00 61 1012.1
20260903074003 75 175 7.0 14.0 0.00 0.00 0.00 60 1012.1
20260903073503 75 177 6.0 14.0 0.00 0.00 0.00 60 1012.1
20260903073003 75 176 7.0 13.0 0.00 0.00 0.00 61 1012.1
20260903072503 75 176 7.0 13.0 0.00 0.00 0.00 60 1012.1
20260903072003 75 174 6.0 12.0 0.00 0.00 0.00 60 1012.2
20260903071503 75 171 6.0 12.0 0.00 0.00 0.00 60 1012.3
20260903071003 75 172 5.0 12.0 0.00 0.00 0.00 59 1012.3
20260903070503 75 175 6.0 15.0 0.00 0.00 0.00 58 1012.2
20260903070003 76 178 6.0 15.0 0.00 0.00 0.00 58 1012.2
20260903065503 76 178 6.0 11.0 0.00 0.00 0.00 57 1012.2
20260903065003 76 179 6.0 12.0 0.00 0.00 0.00 56 1012.2
20260903064503 77 179 5.0 12.0 0.00 0.00 0.00 55 1012.1
20260903064003 77 179 5.0 11.0 0.00 0.00 0.00 54 1012.1
20260903063503 77 180 5.0 11.0 0.00 0.00 0.00 53 1012.0
20260903063003 78 178 5.0 13.0 0.00 0.00 0.00 53 1012.1
20260903062503 78 176 6.0 13.0 0.00 0.00 0.00 52 1012.1
20260903062003 78 179 6.0 15.0 0.00 0.00 0.00 52 1012.1
20260903061503 78 180 6.0 15.0 0.00 0.00 0.00 51 1012.2
20260903061003 78 178 6.0 12.0 0.00 0.00 0.00 51 1012.2
20260903060503 78 182 6.0 12.0 0.00 0.00 0.00 50 1012.2
20260903060003 78 184 6.0 12.0 0.00 0.00 0.00 50 1012.2
20260903055503 78 185 6.0 12.0 0.00 0.00 0.00 49 1012.2
20260903055003 78 184 6.0 15.0 0.00 0.00 0.00 48 1012.2
20260903054503 79 180 6.0 15.0 0.00 0.00 0.00 48 1012.2
20260903054003 79 178 5.0 12.0 0.00 0.00 0.00 47 1012.2
20260903053503 79 181 6.0 12.0 0.00 0.00 0.00 47 1012.2
20260903053003 79 181 7.0 12.0 0.00 0.00 0.00 46 1012.2
20260903052503 80 180 7.0 12.0 0.00 0.00 0.00 45 1012.3
20260903052003 80 179 6.0 12.0 0.00 0.00 0.00 45 1012.3
20260903051503 80 181 6.0 13.0 0.00 0.00 0.00 43 1012.3
20260903051003 80 180 7.0 13.0 0.00 0.00 0.00 43 1012.3
20260903050503 80 177 7.0 12.0 0.00 0.00 0.00 43 1012.3
20260903050004 80 178 6.0 11.0 0.00 0.00 0.00 42 1012.3
20260903045503 79 179 6.0 11.0 0.00 0.00 0.00 43 1012.3
20260903045003 78 178 5.0 10.0 0.00 0.00 0.00 44 1012.2
20260903044503 78 181 4.0 9.0 0.00 0.00 0.00 44 1012.4
20260903044003 78 185 3.0 7.0 0.00 0.00 0.00 45 1012.4
20260903043503 78 182 1.0 6.0 0.00 0.00 0.00 45 1012.5
20260903043003 77 206 0.0 2.0 0.00 0.00 0.00 46 1012.3
20260903042503 78 206 0.0 2.0 0.00 0.00 0.00 46 1012.3
20260903042003 78 193 0.0 1.0 0.00 0.00 0.00 46 1012.3
20260903041503 78 187 1.0 3.0 0.00 0.00 0.00 46 1012.3
20260903041003 78 176 2.0 5.0 0.00 0.00 0.00 45 1012.3
20260903040503 78 171 2.0 6.0 0.00 0.00 0.00 45 1012.2
20260903040003 78 172 3.0 8.0 0.00 0.00 0.00 46 1012.4
20260903035503 78 171 3.0 9.0 0.00 0.00 0.00 46 1012.3
20260903035003 78 177 3.0 9.0 0.00 0.00 0.00 44 1012.3
20260903034503 78 184 2.0 5.0 0.00 0.00 0.00 44 1012.2
20260903034003 78 175 2.0 6.0 0.00 0.00 0.00 43 1012.3
20260903033503 79 168 1.0 6.0 0.00 0.00 0.00 42 1012.3
20260903033003 79 154 0.0 2.0 0.00 0.00 0.00 43 1012.2
20260903032503 80 0 0.0 0.0 0.00 0.00 0.00 41 1012.3
20260903032003 80 0 0.0 0.0 0.00 0.00 0.00 40 1012.3
20260903031503 81 0 0.0 0.0 0.00 0.00 0.00 40 1012.3
20260903031003 81 192 0.0 2.0 0.00 0.00 0.00 40 1012.4
20260903030503 81 199 1.0 2.0 0.00 0.00 0.00 39 1012.3
20260903030003 81 206 1.0 3.0 0.00 0.00 0.00 38 1012.2
20260903025503 82 189 2.0 5.0 0.00 0.00 0.00 38 1012.2
20260903025003 82 185 2.0 8.0 0.00 0.00 0.00 39 1012.1
20260903024503 81 185 1.0 8.0 0.00 0.00 0.00 37 1012.1
20260903024003 81 183 0.0 4.0 0.00 0.00 0.00 37 1012.1
20260903023503 82 0 0.0 0.0 0.00 0.00 0.00 36 1012.1
20260903023003 82 215 0.0 1.0 0.00 0.00 0.00 36 1012.0
20260903022503 82 215 0.0 1.0 0.00 0.00 0.00 36 1012.0
20260903022003 83 0 0.0 0.0 0.00 0.00 0.00 35 1011.9
20260903021503 83 210 0.0 2.0 0.00 0.00 0.00 34 1011.8
20260903021003 84 207 0.0 2.0 0.00 0.00 0.00 34 1011.7
20260903020503 84 210 1.0 4.0 0.00 0.00 0.00 33 1011.7
20260903020003 84 210 2.0 4.0 0.00 0.00 0.00 33 1011.7